Regional Weather Roundup
Issued by NWS

Home | Current Version | Previous Version | Text Only | Print | Product List | Glossary On
Versions: 1 2 3 4 5 6 7 8 9 10 11 12 13 14 15 16 17 18 19 20 21 22 23 24 25 26 27 28 29 30 31 32 33 34 35 36 37 38 39 40 41 42 43 44 45 46 47 48 49 50
000
ASUS43 KLMK 020310
RWRKY
KENTUCKY REGIONAL WEATHER ROUNDUP
NATIONAL WEATHER SERVICE LOUISVILLE KY
1100 PM EDT SAT AUG 01 2015

NOTE "FAIR" INDICATES FEW OR NO CLOUDS BELOW 12,000 FEET
WITH NO SIGNIFICANT WEATHER AND/OR OBSTRUCTIONS TO VISIBILITY.

KYZ001>023-026-027-061>063-070>075-020400-
WESTERN AND SOUTH CENTRAL KENTUCKY

CITY           SKY/WX    TMP DP  RH WIND       PRES   REMARKS
PADUCAH        FAIR      77  70  79 CALM      29.98R
HENDERSON      PTCLDY    68  63  83 CALM      29.98R
OWENSBORO      PTCLDY    71  66  84 CALM      29.99S
HOPKINSVILLE   PTCLDY    73  67  79 N3        29.99S
BOWLING GREEN  PTCLDY    73  60  63 CALM      30.00S
GLASGOW        PTCLDY   N/A N/A N/A CALM      30.01R
$$

KYZ024-025-028>034-038-045-046-053-020400-
NORTH CENTRAL KENTUCKY

CITY           SKY/WX    TMP DP  RH WIND       PRES   REMARKS
LOUISVILLE/SDF PTCLDY    78  57  48 N3        29.98S
LOUISVILLE/LOU CLEAR     74  59  59 CALM      30.00R
FORT KNOX      PTCLDY    65  61  86 CALM      29.98S
$$

KYZ035>037-039>044-047>052-055>060-089>105-020400-
NORTHEAST KENTUCKY

CITY           SKY/WX    TMP DP  RH WIND       PRES   REMARKS
LEXINGTON      CLEAR     68  60  75 CALM      30.01S
COVINGTON      CLEAR     69  58  67 W5        30.00S
FRANKFORT      CLEAR     67  60  78 CALM      30.00R
$$

KYZ054-064>069-076>088-106>120-020400-
SOUTHEAST KENTUCKY

CITY           SKY/WX    TMP DP  RH WIND       PRES   REMARKS
JACKSON        CLEAR     73  56  54 CALM      30.02R
LONDON         PTCLDY    71  60  68 CALM      30.02R
SOMERSET       CLEAR     70  59  68 NW3       30.02S
MIDDLESBORO    PTCLDY    68  64  87 CALM      30.02S
MONTICELLO     PTCLDY    64  63  97 CALM      30.04R
$$



USA.gov is the U.S. government's official web portal to all federal, state and local government web resources and services.